User: anonymous
Location: Unspecified
(0.0000°N, 0.0000°E)
Time: 04:11:19
(UTC+02:00)
Language:

Cosmos 1892 Rocket - Orbit

View from above orbital plane
View from above orbital plane
View from above satellite
View from above satellite

Ground track
Ground track

The orbit data is extracted from the following two-line orbital elements,

1 18422U 87088B   14240.98941368  .00000353  00000-0  41005-4 0  3288
2 18422 082.5103 055.4099 0019606 204.2974 270.8890 14.82414309450199
Epoch (UTC): 28 August 2014 23:44:45
Eccentricity: 0.0019606
inclination: 82.5103°
perigee height: 608 km
apogee height: 635 km
right ascension of ascending node: 55.4099°
argument of perigee: 204.2974°
revolutions per day: 14.82414309
mean anomaly at epoch: 270.8890°
orbit number at epoch: 45019

The dashed part of the orbit path shows where the satellite is in the earth's shadow,  

DLR